Location: Caixon
(43.4106°N, 0.0273°E)
Time: 22:56:21
(UTC+00:00)

Cosmos 2369 - Pass Details

Date: 16 October 2021
Orbit: 838 x 857 km, 71.0° (Epoch: 07 December)

Event Time Altitude Azimuth Distance (km) Brightness Sun altitude
Exits shadow 03:52:30 14° 337° (NNW) 2,232 5.8 -26.5°
Maximum altitude 03:57:33 81° 65° (ENE) 870 3.7 -25.6°
Drops below altitude 10° 04:03:16 10° 153° (SSE) 2,482 6.3 -24.6°
Sets 04:05:43 0° 154° (SSE) 3,415 7.0 -24.2°
